Home   Weather   Herat   Past weeks

Flag for Afghanistan Past Weather in Herat, Afghanistan — Yesterday and Last 2 Weeks

Now
77 °F

Sunny.


Feels Like: 76 °F
Forecast: 52 / 85 °F
Wind: 9 mph from West

Location: Herat Airport

Current Time: Apr 24, 2017 at 7:57:04 pm

Latest Report: Apr 24, 2017 at 7:25 pm


Visibility: 10 mi

Pressure: 29.86 "Hg (26.82 "Hg at 937m altitude)

Humidity: 13%

Dew Point: 23 °F

Location of HeratLocation

Past Weather in Herat — Graph

°F

Herat Temperature Yesterday

Maximum temperature yesterday: 79 °F (at 1:25 pm)
Minimum temperature yesterday: 52 °F (at 5:55 am)
Average temperature yesterday: 68 °F

High & Low Weather Summary for the Past Weeks

 TemperatureHumidityPressure
High93 °F (Apr 15, 2:25 pm)88% (Apr 14, 5:50 am)30.24 "Hg (Apr 14, 5:50 am)
Low52 °F (Apr 10, 5:55 am)8% (Apr 14, 4:25 pm)29.83 "Hg (Apr 19, 4:25 pm)
Average73 °F41%30.03 "Hg
* Reported Apr 9 6:25 pm — Apr 24 6:25 pm, Herat, Weather by CustomWeather, © 2017

Note: Actual official high and low records may vary slightly from our data, if they occured in-between our weather recording intervals... More about our weather records

Advertising

Herat Weather History for the Previous 24 Hours

Scroll right to see more
 ConditionsComfort  
Time TempWeatherWind HumidityBarometerVisibility
6:25 pm
Mon, Apr 24
82 °FSunny.10 mph12%29.86 "Hg10 mi
5:25 pm86 °FSunny.13 mph8%29.86 "Hg10 mi
4:25 pm86 °FSunny.8 mph10%29.86 "Hg10 mi
3:25 pm84 °FSunny.9 mph9%29.86 "Hg10 mi
2:25 pm81 °FSunny.12 mph13%29.89 "Hg10 mi
1:25 pm79 °FSunny.5 mph12%29.92 "Hg10 mi
12:25 pm73 °FSunny.2 mph20%29.92 "Hg10 mi
11:25 am72 °FSunny.5 mph27%29.95 "Hg10 mi
10:25 am66 °FSunny.5 mph32%29.98 "Hg10 mi
9:25 am63 °FSunny.3 mph34%30.01 "Hg10 mi
8:25 am59 °FSunny.6 mph36%30.01 "Hg10 mi
7:25 am57 °FSunny.1 mph39%30.01 "Hg10 mi
6:25 am55 °FSunny.1 mph41%29.98 "Hg10 mi
5:55 am54 °FClear.No wind41%29.98 "Hg10 mi
9:25 pm
Sun, Apr 23
64 °FClear.6 mph22%30.09 "Hg10 mi
8:25 pm66 °FClear.15 mph17%30.07 "Hg10 mi
7:25 pm70 °FSunny.17 mph13%30.07 "Hg10 mi
Weather by CustomWeather, © 2017

See weather overviewHow to use our weather pages